Wind_Speed
5 5 6 6 6 6 6 5 4 4 3 3 3 3 4 3 4 3 3 2 1 1 1 1 2 3 4 5 6 7 8 8 9 9 10 10 10 10 10 10 10 10 10 10 9 9 8 8 7
6 6 6 6 6 6 6 5 5 5 4 4 3 3 4 3 3 3 2 2 2 1 1 1 2 3 4 5 6 7 8 9 9 9 9 10 10 10 11 11 11 11 11 10 10 10 9 9 8
7 7 7 6 6 6 6 6 5 5 5 4 4 3 3 3 3 3 2 2 2 1 1 1 2 2 3 4 5 7 8 8 9 9 9 10 10 11 11 11 12 11 11 10 10 10 10 10 9
8 8 8 7 6 6 6 5 5 6 5 5 4 4 4 3 3 3 2 2 2 1 1 1 1 1 3 4 5 6 7 8 9 9 10 10 11 11 11 11 12 11 11 10 9 9 9 9 8
9 9 8 8 7 7 7 7 7 6 5 4 4 4 4 4 4 3 3 3 2 2 1 1 1 2 3 4 5 6 7 7 8 9 10 10 11 12 11 11 11 11 10 9 9 8 8 8 8
10 9 9 9 8 8 8 8 8 6 6 6 5 4 4 5 4 4 3 3 2 2 1 1 1 2 2 4 5 6 7 7 8 9 10 11 11 11 11 11 11 10 10 9 9 8 8 8 8
11 10 10 9 8 8 9 8 9 8 7 5 5 5 5 5 5 5 5 4 3 2 2 2 1 1 2 4 5 6 7 8 9 9 10 11 11 11 11 11 10 10 9 9 8 8 8 8 7
12 11 10 10 9 9 9 9 9 9 7 6 5 5 6 5 6 6 5 5 4 3 2 1 1 1 2 3 5 6 7 8 8 10 11 12 12 11 11 11 10 9 9 8 8 8 7 7 6
12 11 11 10 9 9 9 9 9 8 6 6 5 5 6 6 6 6 5 6 5 3 2 1 1 1 2 3 5 6 7 8 9 10 11 12 12 12 11 11 10 9 8 8 7 6 6 6 5
12 12 12 11 10 10 10 10 9 8 6 6 5 6 6 7 5 6 7 7 6 5 3 2 1 1 2 4 5 6 7 8 9 11 12 12 12 12 11 11 10 9 8 7 6 6 5 5 5
13 12 12 12 10 10 10 10 9 8 7 6 6 6 6 7 7 6 7 7 6 5 4 2 2 2 3 4 5 6 7 8 9 11 12 12 12 12 11 11 10 9 8 7 6 5 4 4 4
13 13 12 12 11 10 10 10 10 9 8 8 7 6 7 7 7 7 7 8 7 5 3 3 3 3 3 4 5 6 7 9 10 11 12 12 12 12 12 11 10 9 8 6 5 4 3 2 2
13 12 12 12 12 11 11 11 10 9 9 8 7 7 7 8 7 8 8 7 6 5 4 3 3 3 2 3 4 6 7 9 10 11 12 12 12 12 12 12 11 10 8 7 4 3 1 1 2
13 13 13 12 12 13 13 12 12 11 10 9 9 8 8 8 8 9 8 7 6 5 4 3 3 2 2 3 4 6 7 9 10 12 12 13 13 13 13 13 12 11 10 8 6 4 3 3 3
14 13 13 13 12 14 13 12 12 11 11 10 9 9 9 8 8 8 8 7 6 5 5 5 4 2 2 3 4 5 7 8 10 11 12 13 13 14 14 13 13 12 11 9 7 6 6 5 5
14 14 14 14 14 14 13 11 11 11 9 10 11 10 9 9 9 8 9 9 8 7 6 5 4 3 2 3 3 5 6 8 10 11 12 13 13 14 14 14 13 13 13 11 9 8 8 7 7
14 14 14 14 14 14 13 12 11 11 10 11 12 12 10 10 10 9 10 9 9 8 7 6 4 3 3 2 3 5 6 8 10 11 12 13 13 14 14 14 14 14 14 13 11 10 10 9 8
14 14 14 15 14 15 14 13 13 12 11 11 11 12 11 11 11 11 11 11 10 9 8 6 5 4 3 2 3 4 6 8 9 10 11 12 13 13 14 15 15 15 14 14 12 11 11 10 10
14 13 14 15 15 15 15 15 14 14 12 12 12 12 12 12 12 12 12 11 11 10 9 8 6 4 3 3 4 4 6 7 8 10 11 12 13 14 14 15 15 15 15 14 14 13 12 11 11
14 14 14 14 15 15 15 15 14 13 12 12 12 12 13 13 13 13 12 12 12 11 10 9 7 5 4 4 4 4 5 7 8 9 10 11 12 13 14 14 14 15 14 14 14 13 13 12 12
14 14 14 14 14 15 15 15 14 14 13 13 12 12 12 13 13 13 13 13 12 11 11 9 8 6 5 4 4 4 4 5 7 8 9 11 11 12 13 13 13 14 14 14 13 13 13 12 12
14 14 15 15 15 15 16 15 15 15 15 14 13 13 13 13 14 14 14 13 13 12 11 10 9 7 6 4 4 4 4 5 6 7 8 9 10 11 12 13 13 13 13 13 13 13 13 12 12
13 14 14 15 16 16 17 16 15 15 15 14 14 14 14 15 15 15 15 14 14 14 12 11 10 8 7 5 4 4 4 4 5 6 7 8 9 10 11 12 13 13 13 14 13 13 13 13 12
13 14 14 15 16 16 16 17 15 15 14 14 15 15 15 16 16 16 16 15 15 14 13 12 10 9 7 6 5 4 3 4 4 5 5 7 8 9 10 10 11 12 12 13 13 12 12 12 12
13 13 14 14 15 15 15 16 14 14 15 15 15 16 16 17 17 17 17 16 16 15 14 13 11 9 8 7 5 4 3 3 4 4 5 5 6 7 8 9 10 10 11 11 11 11 11 11 11
13 13 13 13 13 12 13 13 12 14 15 16 17 17 18 18 17 18 19 18 17 16 15 14 12 10 9 8 6 5 4 3 3 4 4 5 5 6 7 8 8 9 10 10 10 10 10 10 10
13 13 13 13 13 13 14 13 12 13 14 16 17 17 17 18 19 19 20 20 19 18 17 15 14 12 10 9 7 6 5 4 3 3 3 4 5 5 6 7 7 8 9 9 9 9 9 9 8
13 13 13 14 13 13 13 13 13 15 15 15 16 17 17 17 19 20 20 21 20 19 18 16 15 14 12 10 9 7 6 5 4 3 2 3 4 4 5 5 6 6 7 7 8 8 8 8 8
14 14 14 14 14 14 13 13 13 15 15 16 16 17 18 18 18 20 21 21 20 20 19 18 16 15 13 11 10 9 7 6 5 3 2 2 2 3 3 4 4 4 5 6 6 7 7 8 7
15 14 14 15 15 14 14 13 13 15 16 17 18 18 18 19 19 20 21 21 21 21 20 18 17 16 15 13 11 10 9 7 6 5 3 2 1 1 1 2 2 3 3 4 4 5 5 6 7
Wind_Direction
246 252 262 263 260 258 256 252 258 246 243 223 210 200 198 201 195 194 205 221 238 280 311 334 336 348 356 355 352 349 347 344 340 338 335 334 331 328 323 320 314 310 300 289 284 282 277 272 265
245 251 262 264 264 261 260 255 246 244 246 229 214 200 207 200 190 190 208 226 241 270 284 311 332 346 358 358 353 348 345 345 342 340 337 334 329 326 322 318 314 311 304 293 286 281 277 271 264
248 253 259 263 263 264 267 258 244 244 250 239 229 220 217 191 176 192 216 233 239 245 266 298 326 350 359 356 352 348 349 346 343 341 337 333 329 325 320 316 315 310 303 297 289 280 275 272 267
253 254 260 263 262 264 268 267 260 252 249 234 234 237 215 196 187 197 227 237 221 225 247 290 309 355 4 356 352 350 349 349 347 346 341 335 331 328 323 318 315 310 303 299 293 286 278 273 266
254 255 258 263 263 263 267 267 263 253 242 235 234 236 227 212 206 217 240 242 240 245 253 274 315 355 357 357 354 354 354 354 353 349 343 338 335 332 328 322 317 311 307 301 292 286 282 274 267
254 254 256 265 265 267 270 267 259 249 242 241 234 229 229 218 218 228 237 244 246 239 242 236 284 341 355 1 2 4 2 359 355 351 348 343 338 335 331 326 320 314 310 304 296 287 284 278 270
253 253 256 263 268 272 265 259 261 259 238 233 235 237 239 228 225 228 234 231 238 241 237 227 272 340 358 3 5 5 3 359 356 353 351 347 343 339 336 330 323 318 313 307 298 292 287 283 273
254 253 256 263 270 269 261 256 256 247 228 226 236 244 237 230 225 226 228 224 221 227 240 228 265 357 8 13 10 6 2 360 357 355 353 350 347 344 340 336 331 325 318 310 302 294 286 279 267
253 252 255 259 266 266 258 250 250 237 231 229 235 237 228 223 218 219 218 216 218 218 216 224 187 29 24 19 15 12 8 4 1 358 355 353 351 349 345 341 337 334 326 316 306 298 287 273 258
251 251 253 257 258 262 257 252 246 235 230 227 229 229 227 217 212 216 214 208 207 206 205 194 153 92 54 28 20 16 11 7 4 1 359 357 358 357 353 348 344 341 335 326 313 303 290 273 253
250 249 253 256 254 256 257 249 237 232 234 225 225 228 223 217 218 215 212 210 206 199 197 180 145 102 56 32 25 19 14 11 8 6 5 6 6 4 0 356 352 348 341 334 323 308 291 267 244
250 249 251 254 256 253 249 237 232 228 233 228 224 224 219 215 216 209 205 196 190 182 174 153 133 98 53 34 30 25 21 17 15 13 13 14 12 8 8 6 3 360 354 346 338 325 301 259 215
251 251 250 251 253 251 248 238 233 228 228 231 224 219 217 211 215 210 203 196 189 181 167 145 127 98 58 42 37 30 28 23 21 18 17 18 16 16 18 18 16 14 10 8 8 12 16 147 159
252 251 250 250 251 251 248 235 234 232 229 228 225 220 222 215 213 206 201 198 191 184 174 155 139 122 75 56 45 36 32 28 26 23 24 23 23 24 24 24 24 24 23 28 36 49 72 101 123
251 249 248 250 253 249 246 235 231 233 229 222 223 222 218 213 202 196 199 200 195 187 173 153 142 132 93 69 51 41 37 33 31 31 31 31 31 31 31 31 32 31 32 38 48 65 79 95 109
250 248 249 249 250 246 243 239 232 229 225 218 221 221 216 208 197 195 194 197 194 183 171 160 155 140 114 81 62 51 42 40 38 38 36 35 36 36 36 37 37 38 41 48 58 72 83 90 102
248 248 248 247 245 245 239 236 235 230 226 223 220 219 218 205 200 198 196 195 189 181 173 163 155 140 125 97 75 60 53 49 44 41 39 38 39 39 38 39 41 43 47 53 63 73 80 85 93
247 249 250 248 244 242 238 234 236 234 229 227 225 224 219 208 209 202 198 192 185 181 175 167 161 146 133 114 88 72 63 57 48 43 42 41 41 41 41 42 43 47 52 56 64 73 79 84 88
249 249 249 248 244 239 238 238 236 235 234 229 229 226 219 212 209 202 198 193 187 183 177 175 169 154 139 123 107 87 71 61 52 48 45 44 44 44 45 44 47 52 55 60 65 72 78 82 86
248 249 249 248 244 239 235 232 233 232 229 226 228 226 220 210 208 203 200 195 191 186 181 178 172 161 146 128 115 101 82 68 57 51 49 48 48 46 47 48 51 54 58 62 66 69 74 78 84
247 247 249 248 243 237 236 231 231 232 236 230 226 221 214 211 208 204 201 196 194 189 185 179 175 166 154 134 118 110 94 74 60 54 52 50 49 49 49 50 53 56 60 63 66 70 72 76 81
248 249 248 246 241 238 236 233 232 232 236 231 226 220 213 211 209 205 203 200 197 193 187 180 177 172 164 150 133 118 99 81 66 57 54 53 51 51 51 52 54 58 61 64 67 69 72 75 76
247 247 247 246 242 239 239 237 233 234 233 230 225 219 215 214 213 209 205 201 197 194 189 183 178 176 172 165 150 128 109 89 72 62 58 56 54 53 55 55 56 59 62 65 68 70 72 72 73
246 246 245 246 242 241 239 239 234 229 227 227 223 219 216 214 215 212 208 204 200 195 191 187 182 181 178 171 162 140 122 101 80 67 62 60 59 58 59 58 59 60 63 66 70 72 73 73 73
243 246 246 246 243 244 237 237 234 232 229 225 221 217 213 215 217 213 208 204 201 199 196 191 188 186 183 178 173 161 142 114 90 75 66 64 64 64 63 61 62 62 63 65 66 69 69 72 72
242 246 247 248 246 241 234 233 230 231 227 223 220 219 215 216 218 213 208 206 203 203 200 194 192 191 188 184 182 177 165 137 107 87 74 69 71 71 68 64 65 64 63 63 63 66 67 69 71
240 239 242 247 245 240 238 237 235 230 227 224 220 219 217 216 215 211 209 207 205 205 202 198 196 196 194 191 190 187 180 164 138 106 85 78 79 78 75 70 68 67 66 65 64 64 65 64 65
240 239 240 243 245 244 241 237 232 229 228 225 220 220 218 219 214 212 209 207 206 205 203 201 199 199 197 198 199 194 189 181 167 145 110 89 87 84 80 77 73 70 67 64 61 59 59 58 56
238 240 242 243 244 244 239 233 228 227 226 224 218 215 216 216 214 209 207 206 206 205 203 204 203 202 201 202 202 200 199 196 190 180 163 125 98 88 83 79 74 67 61 58 57 55 54 52 48
238 239 240 241 243 242 238 230 227 225 226 223 218 214 211 213 213 210 207 205 206 207 205 205 206 205 205 205 205 205 204 203 201 198 198 197 158 106 87 73 61 50 47 47 49 50 46 42 37
Height
5877 5877 5879 5880 5881 5881 5880 5881 5881 5881 5881 5882 5882 5882 5884 5885 5886 5889 5887 5886 5886 5886 5886 5886 5886 5885 5884 5884 5883 5882 5881 5880 5879 5878 5877 5876 5875 5874 5873 5872 5872 5871 5871 5871 5871 5871 5872 5873 5873
5876 5877 5879 5879 5880 5880 5880 5880 5880 5881 5881 5881 5882 5882 5883 5883 5884 5885 5885 5885 5886 5886 5886 5886 5885 5885 5884 5884 5883 5882 5881 5880 5879 5878 5877 5876 5874 5873 5872 5871 5870 5870 5869 5869 5869 5870 5870 5871 5872
5876 5877 5878 5879 5878 5879 5880 5879 5879 5879 5880 5881 5882 5882 5883 5883 5884 5884 5885 5885 5885 5886 5886 5885 5885 5885 5884 5884 5883 5882 5881 5880 5879 5877 5876 5875 5874 5872 5871 5870 5869 5868 5868 5867 5867 5868 5869 5869 5870
5875 5877 5878 5878 5878 5878 5879 5879 5879 5879 5879 5880 5881 5882 5882 5883 5883 5884 5884 5885 5885 5885 5885 5885 5885 5885 5884 5883 5883 5882 5881 5880 5878 5877 5875 5874 5872 5871 5869 5868 5867 5866 5866 5865 5865 5866 5866 5867 5868
5874 5875 5876 5877 5877 5878 5878 5878 5878 5878 5879 5879 5880 5881 5881 5882 5882 5883 5884 5884 5885 5885 5885 5885 5885 5885 5884 5883 5883 5882 5881 5879 5878 5876 5875 5873 5872 5870 5868 5867 5866 5865 5864 5864 5864 5864 5864 5865 5865
5873 5874 5875 5875 5876 5877 5877 5877 5877 5878 5878 5879 5879 5880 5880 5881 5882 5883 5883 5884 5884 5885 5885 5885 5885 5884 5884 5883 5882 5881 5880 5879 5878 5876 5874 5873 5871 5869 5867 5865 5864 5863 5862 5862 5862 5862 5862 5863 5863
5872 5872 5873 5874 5875 5875 5876 5876 5876 5877 5877 5878 5879 5879 5879 5880 5881 5882 5883 5884 5884 5884 5885 5884 5884 5884 5884 5883 5882 5881 5880 5879 5877 5876 5874 5872 5870 5868 5866 5864 5863 5862 5861 5860 5860 5860 5860 5861 5861
5869 5871 5871 5872 5873 5874 5875 5875 5875 5876 5876 5877 5877 5878 5879 5880 5881 5881 5882 5883 5884 5884 5884 5884 5884 5884 5884 5883 5882 5881 5880 5879 5877 5875 5873 5871 5869 5867 5865 5863 5861 5860 5859 5859 5858 5858 5858 5859 5859
5867 5870 5869 5871 5872 5873 5873 5874 5874 5874 5875 5876 5876 5877 5878 5879 5880 5881 5881 5882 5883 5884 5884 5884 5884 5884 5883 5883 5882 5881 5880 5879 5877 5875 5873 5871 5868 5866 5864 5862 5860 5859 5857 5857 5856 5856 5856 5857 5857
5865 5867 5868 5869 5870 5871 5871 5872 5873 5873 5874 5875 5875 5876 5877 5878 5879 5879 5880 5881 5882 5883 5883 5884 5884 5884 5883 5883 5882 5881 5880 5879 5877 5875 5873 5870 5868 5865 5863 5861 5859 5857 5856 5855 5855 5854 5854 5855 5855
5863 5864 5865 5866 5868 5869 5869 5870 5871 5872 5873 5874 5874 5875 5876 5877 5878 5879 5880 5880 5882 5882 5883 5883 5883 5884 5883 5883 5882 5881 5880 5879 5877 5875 5873 5870 5868 5865 5863 5860 5858 5857 5855 5854 5853 5853 5853 5853 5854
5860 5862 5863 5864 5866 5867 5868 5868 5869 5870 5872 5872 5873 5874 5875 5876 5877 5878 5879 5880 5881 5882 5883 5883 5883 5884 5884 5883 5883 5882 5880 5879 5877 5875 5872 5870 5868 5865 5862 5860 5858 5856 5854 5853 5852 5851 5851 5852 5852
5858 5859 5861 5862 5864 5864 5866 5867 5868 5869 5870 5871 5872 5873 5874 5875 5876 5877 5879 5880 5881 5882 5883 5883 5884 5884 5884 5884 5883 5882 5881 5879 5877 5875 5873 5870 5868 5865 5863 5860 5858 5856 5854 5852 5851 5851 5850 5851 5851
5856 5857 5859 5860 5861 5863 5864 5865 5866 5867 5868 5870 5870 5872 5873 5874 5875 5877 5878 5879 5881 5882 5882 5883 5883 5884 5884 5884 5884 5883 5881 5880 5878 5876 5873 5871 5868 5866 5863 5861 5858 5856 5854 5852 5851 5851 5851 5851 5851
5854 5856 5857 5858 5859 5860 5862 5863 5864 5866 5867 5868 5869 5870 5872 5873 5874 5876 5877 5879 5880 5881 5882 5883 5884 5884 5885 5885 5884 5883 5882 5881 5879 5876 5874 5872 5869 5867 5864 5862 5859 5857 5855 5853 5852 5851 5851 5851 5852
5851 5853 5855 5856 5857 5858 5861 5862 5863 5864 5865 5867 5868 5869 5871 5872 5873 5875 5877 5879 5880 5881 5882 5883 5884 5885 5885 5885 5884 5884 5883 5881 5879 5877 5875 5873 5871 5868 5866 5863 5861 5858 5856 5854 5853 5852 5852 5852 5853
5849 5851 5852 5854 5855 5856 5858 5859 5861 5862 5864 5865 5867 5868 5870 5871 5873 5874 5876 5878 5879 5881 5882 5883 5884 5885 5885 5885 5885 5884 5883 5882 5880 5879 5877 5874 5872 5870 5867 5865 5862 5860 5858 5856 5855 5854 5854 5854 5854
5847 5848 5849 5851 5852 5854 5855 5857 5858 5860 5862 5863 5865 5866 5868 5870 5872 5873 5875 5877 5879 5880 5882 5883 5884 5885 5885 5885 5885 5885 5884 5883 5882 5880 5878 5876 5874 5872 5869 5867 5864 5862 5860 5858 5857 5856 5855 5855 5856
5844 5845 5847 5848 5850 5852 5853 5855 5857 5858 5860 5861 5863 5865 5867 5869 5870 5872 5874 5876 5878 5880 5881 5883 5884 5885 5885 5886 5886 5886 5885 5884 5883 5881 5880 5878 5876 5873 5871 5869 5867 5864 5862 5861 5859 5859 5858 5858 5858
5841 5843 5844 5846 5847 5849 5851 5853 5854 5856 5858 5859 5861 5863 5865 5867 5869 5871 5873 5875 5878 5879 5881 5882 5884 5885 5886 5886 5886 5886 5886 5885 5884 5882 5881 5879 5877 5875 5873 5871 5869 5867 5865 5863 5862 5861 5861 5860 5860
5839 5840 5841 5843 5844 5846 5848 5850 5852 5854 5856 5857 5859 5861 5863 5865 5868 5870 5872 5874 5877 5879 5880 5882 5883 5885 5886 5886 5886 5887 5886 5885 5885 5884 5882 5881 5879 5877 5875 5873 5871 5870 5868 5866 5865 5864 5864 5863 5863
5836 5837 5838 5840 5842 5843 5846 5848 5850 5852 5854 5855 5857 5859 5861 5863 5866 5868 5871 5873 5876 5878 5880 5881 5883 5884 5885 5886 5887 5887 5887 5886 5886 5885 5883 5882 5881 5879 5877 5876 5874 5872 5871 5869 5868 5867 5867 5866 5866
5833 5834 5836 5837 5839 5841 5843 5845 5849 5849 5851 5853 5855 5857 5859 5862 5864 5867 5869 5872 5874 5877 5879 5881 5882 5884 5885 5886 5887 5887 5887 5887 5886 5886 5885 5884 5882 5881 5879 5878 5876 5875 5873 5872 5871 5870 5870 5869 5869
5830 5832 5833 5834 5836 5839 5840 5842 5845 5847 5849 5851 5852 5855 5857 5860 5862 5865 5868 5871 5873 5876 5878 5880 5882 5883 5885 5886 5887 5887 5887 5887 5887 5886 5886 5885 5884 5883 5881 5880 5879 5878 5876 5875 5874 5873 5873 5872 5872
5828 5830 5831 5832 5833 5836 5837 5839 5843 5844 5846 5848 5850 5852 5854 5857 5860 5863 5866 5869 5872 5875 5877 5879 5881 5883 5884 5885 5887 5887 5888 5888 5888 5887 5887 5886 5885 5884 5883 5882 5881 5880 5879 5878 5877 5876 5875 5875 5874
5825 5827 5829 5830 5832 5833 5835 5836 5841 5841 5843 5845 5847 5850 5852 5855 5858 5861 5864 5867 5870 5873 5876 5878 5880 5882 5883 5885 5886 5887 5888 5888 5888 5888 5888 5887 5886 5885 5885 5884 5883 5882 5881 5880 5879 5879 5878 5877 5877
5823 5824 5826 5828 5829 5831 5833 5835 5837 5839 5840 5842 5845 5847 5850 5852 5855 5858 5862 5865 5868 5871 5874 5876 5878 5880 5882 5884 5885 5887 5888 5888 5888 5888 5888 5888 5887 5887 5886 5885 5885 5884 5883 5882 5882 5881 5880 5879 5879
5821 5822 5823 5825 5826 5828 5830 5832 5835 5836 5837 5840 5842 5845 5847 5850 5853 5856 5859 5863 5866 5869 5872 5875 5877 5879 5881 5883 5884 5886 5887 5888 5888 5889 5889 5889 5888 5888 5887 5887 5886 5886 5885 5884 5883 5883 5882 5881 5881
5818 5820 5820 5822 5824 5826 5827 5832 5832 5833 5835 5837 5839 5842 5844 5847 5850 5853 5856 5860 5863 5867 5870 5873 5875 5877 5879 5881 5883 5885 5886 5887 5888 5889 5889 5889 5889 5889 5888 5888 5887 5887 5886 5885 5885 5884 5883 5883 5882
5815 5816 5818 5820 5821 5822 5824 5830 5829 5830 5832 5834 5836 5839 5841 5844 5847 5850 5854 5857 5861 5864 5868 5870 5873 5875 5878 5880 5882 5883 5885 5886 5887 5888 5889 5889 5889 5889 5889 5888 5888 5887 5887 5886 5886 5885 5885 5884 5883